HAIYANG 2B

Satellite information

Favourite Embed

Satellite Type and Status

PAYLOADIN ORBIT

Key statistics

Satellite HAIYANG 2B at a glance.

Uptime

2449

Days in orbit

Revolutions

≈ 13.8

Per day

Orbit

SSO

Sun Synchronous Orbit

Inclination

99.3

Latest

Satellite identification and parameters

Extended collection of information and parameters for HAIYANG 2B.

Object identification

Identified? True

Debris? False

Object name: HAIYANG 2B

International designator: 2018-081A

Object number (NORAD): 43655

Object ID (CCSDS): 43655

Country: PEOPLES REPUBLIC OF CHINA (PRC)

Current information (Y/N): Y

RCS size: LARGE

Orbital parameters

Period: 104.4 minutes

Inclination: 99.3323 deg

SMA: 7344.48 km

Apoapsis: 967.874 km

Periapsis: 964.816 km

RAAN: 197.8439 deg

Eccentricy: 0.0002082

Argument of periapsis: 102.7618 deg

Mean anomaly: 257.3767 deg

Mean motion: 13.79307791 rev/day

Mean motion (dot): 0.00000015 rev/day2

B* drag term: 0.000057731 1/REarth

Two-line elements (TLE)

Creation date: July 8, 2025, 2:27 a.m.

Reference frame: TEME

Reference center: EARTH

Epoch: July 7, 2025, 11:11 p.m. UTC

TLE line 0: 0 HAIYANG 2B

TLE line 1: 1 43655U 18081A 25188.96660183 .00000015 00000-0 57731-4 0 9997

TLE line 2: 2 43655 99.3323 197.8439 0002082 102.7618 257.3767 13.79307791337470

Live tracking on map

Real-time ground track for satellite HAIYANG 2B.

In-orbit conjunctions

There are no conjunctions computed for HAIYANG 2B, at the moment. Check back to stay up to date, as we update our databases every day.

Go to all conjunctions

Associated space launch

Haiyang is a series of Chinese marine remote sensing satellites. Haiyang 2B is a follow up to Haiyang 2A satellite. It is intended for monitoring the dynamic ocean environnement with microwave sensors to detect sea surface wind field, sea surface height and sea surface temperature.

HAIYANG 2B was lifted into orbit during the mission ‘Long March 4B | Haiyang 2B’, on board a Long March 4B space rocket.

The launch took place on Oct. 24, 2018, 10:57 p.m. from Launch Complex 9.

For more information about the launch, click the button.

Launch to space Long March 4B | Haiyang 2B
Long March 4B | Haiyang 2B

Agency: N/A

Status: Launch Successful

Launch date: Oct. 24, 2018, 10:57 p.m. UTC

Rocket: Long March 4B

Launch pad: Launch Complex 9

Location: Taiyuan Satellite Launch Center, People's Republic of China

...

Latest news about this satellite

There are no fresh news available about this satellite. Check back as we update our databases every day.


Newsletter sign-up

Weekly statistics, charts and insights to help you stay on top of the space industry.